[[{"header":{"parameterUnit":"m.s-1","parameterCategory":1,"la1":30.2991,"la2":30.254,"lo1":-89.0895,"lo2":-89.0444,"dy":0.0017,"dx":0.0017,"nx":28,"ny":28,"refTime":"2025-05-20T03:00:00:Z","depth":0,"parameterNumber":2,"parameterNumberName":"U-component_of_WINDS"},"data":[0,0,0,0,0,0,0,0,0,0,0,0,0,0,0,0,0,0,0,0,0,0,0,0,0,0,0,0,0,0,0,0,0,0,0,0,0,0,0,0,0,0,0,0,0,0,0,0,0,0,0,0,0,0,0,0,0,0,-2.5662,-2.5663,0,-2.5767,-2.5768,-2.577,-2.5789,-2.5788,-2.5788,-2.5787,-2.5896,-2.59,-2.5903,0,0,0,0,0,0,0,0,0,0,0,0,0,-2.548,-2.5483,-2.5662,-2.5663,-2.5664,-2.5767,-2.5768,-2.577,-2.5789,-2.5788,-2.5787,-2.5786,-2.5895,-2.5899,-2.5904,0,0,0,0,0,0,0,0,0,0,0,0,0,-2.5569,-2.5484,-2.5662,-2.5686,-2.569,-2.5767,-2.5768,-2.577,-2.579,-2.5788,-2.5787,-2.5786,-2.5894,-2.5899,-2.5904,-2.5964,0,0,-2.5921,-2.5924,0,0,0,0,0,0,0,0,-2.5564,-2.5576,-2.5681,-2.5685,-2.5689,-2.5764,-2.5744,-2.5835,-2.579,-2.5752,-2.5787,-2.5785,-2.5853,-2.5862,-2.5885,-2.5969,-2.5974,-2.5922,-2.5925,-2.5928,-2.5929,0,0,0,0,0,0,0,-2.5558,-2.5572,-2.5703,-2.5683,-2.5687,-2.5693,-2.5704,-2.5762,-2.5808,-2.5755,-2.5757,-2.5769,-2.5855,-2.5879,-2.5887,-2.5976,-2.5922,-2.5927,-2.593,-2.5932,-2.6116,-2.6117,0,0,0,0,0,0,-2.5547,-2.5566,-2.57,-2.5707,-2.5622,-2.5697,-2.571,-2.5741,-2.5808,-2.5817,-2.577,-2.5769,-2.587,-2.5881,-2.5891,-2.5966,-2.5928,-2.5933,-2.5936,-2.6114,-2.6116,-2.6118,0,0,0,0,0,0,-2.5543,-2.5559,-2.5696,-2.5637,-2.5655,-2.5702,-2.5736,-2.5744,-2.5768,-2.5819,-2.5828,-2.5786,-2.587,-2.5883,-2.5946,-2.597,-2.5935,-2.594,-2.6112,-2.6115,-2.6117,-2.6116,0,0,0,0,0,0,-2.5538,-2.5557,-2.558,-2.5637,-2.5658,-2.5748,-2.5738,-2.5747,-2.5777,-2.5778,-2.5836,-2.5845,-2.587,-2.5938,-2.5952,-2.5977,-2.5945,-2.6111,-2.6114,-2.6116,-2.6114,-2.6118,-2.6121,0,0,0,0,0,-2.5531,-2.5576,-2.5581,-2.5597,-2.5687,-2.5749,-2.5761,-2.5789,-2.5779,-2.5803,-2.5836,-2.5843,-2.5965,-2.5944,-2.596,-2.5987,-2.6109,-2.6113,-2.6116,-2.6112,-2.6117,-2.6121,0,0,0,0,0,0,-2.552,-2.5584,-2.559,-2.5654,-2.5696,-2.5753,-2.5783,-2.5793,-2.5839,-2.5837,-2.587,-2.5883,-2.5944,-2.5972,-2.5947,-2.6049,-2.6037,-2.6044,-2.6028,-2.6033,-2.6037,-2.6028,-2.5949,0,0,0,0,0,-2.5525,-2.557,-2.5623,-2.5675,-2.5695,-2.5736,-2.5764,-2.5781,-2.5826,-2.5844,-2.5882,-2.5926,-2.5974,-2.6005,-2.6053,-2.6118,-2.6131,-2.6145,-2.6149,-2.6151,-2.6157,-2.6194,-2.62,-2.6129,-2.6129,-2.6129,0,0,-2.5536,-2.5576,-2.5603,-2.5674,-2.5708,-2.5754,-2.575,-2.5799,-2.5834,-2.5852,-2.5913,-2.5942,-2.5994,-2.6058,-2.6088,-2.6083,-2.6179,-2.6156,-2.6157,-2.6162,-2.6198,-2.6205,-2.6211,-2.6132,-2.6131,-2.6131,0,0,-2.5579,-2.5614,-2.5661,-2.5696,-2.5748,-2.5774,-2.5786,-2.5841,-2.5861,-2.5923,-2.5937,-2.598,-2.6062,-2.6098,-2.6127,-2.6185,-2.6194,-2.62,-2.6218,-2.6254,-2.626,-2.6265,-2.6285,-2.6292,-2.6205,-2.6205,-2.6205,0,-2.5586,-2.5656,-2.5684,-2.5732,-2.5763,-2.5781,-2.5829,-2.5862,-2.5927,-2.5949,-2.5942,-2.6047,-2.6082,-2.6155,-2.617,-2.6193,-2.6207,-2.6193,-2.6256,-2.6262,-2.6267,-2.6287,-2.6295,-2.6205,-2.6205,-2.6205,-2.6205,0,-2.5662,-2.571,-2.5742,-2.5803,-2.5838,-2.5886,-2.5922,-2.5954,-2.5969,-2.5997,-2.606,-2.6104,-2.616,-2.6179,-2.6194,-2.6255,-2.625,-2.625,-2.6238,-2.6274,-2.6293,-2.6301,-2.6206,-2.6206,-2.6206,-2.6206,0,0,-2.57,-2.5778,-2.5789,-2.5817,-2.5876,-2.5915,-2.5964,-2.6019,-2.6046,-2.609,-2.6133,-2.6203,-2.6203,-2.6236,-2.6256,-2.6287,-2.633,-2.6283,-2.6285,-2.629,-2.6399,-2.6399,-2.6407,-2.6336,-2.6338,-2.6339,-2.6395,0,-2.5751,-2.5838,-2.5865,-2.5938,-2.5983,-2.6002,-2.6045,-2.6086,-2.6113,-2.6156,-2.6187,-2.6236,-2.6232,-2.6252,-2.6284,-2.6318,-2.6352,-2.6314,-2.6376,-2.6378,-2.6362,-2.6417,-2.6417,-2.6467,-2.6403,-2.6404,-2.6405,0,-2.5821,-2.5866,-2.5943,-2.5997,-2.6017,-2.6055,-2.6108,-2.6149,-2.6196,-2.6214,-2.6251,-2.6268,-2.6321,-2.6307,-2.638,-2.6354,-2.6381,-2.6402,-2.6404,-2.6411,-2.6393,-2.6425,-2.6484,-2.6492,-2.6417,-2.6416,-2.6415,0,-2.5841,-2.5921,-2.5978,-2.6002,-2.6066,-2.6093,-2.6121,-2.6167,-2.6199,-2.6245,-2.6266,-2.6318,-2.6347,-2.6388,-2.6419,-2.6405,-2.649,-2.6478,-2.6506,-2.6505,-2.6523,-2.6521,-2.6587,-2.6541,-2.6541,-2.654,-2.654,0,-2.5894,-2.5941,-2.5988,-2.6023,-2.6076,-2.6107,-2.616,-2.6189,-2.623,-2.6272,-2.6291,-2.633,-2.6369,-2.6413,-2.6438,-2.6495,-2.6508,-2.6524,-2.653,-2.6522,-2.652,-2.654,-2.6537,-2.6542,-2.6542,-2.6542,-2.6541,0,-2.5925,-2.5959,-2.6022,-2.6078,-2.6093,-2.613,-2.6178,-2.6213,-2.6241,-2.6293,-2.6308,-2.6352,-2.6405,-2.644,-2.6508,-2.6525,-2.6587,-2.6592,-2.6571,-2.6573,-2.66,-2.6597,-2.668,-2.6693,-2.6639,-2.6639,-2.6639,0,-2.5957,-2.5993,-2.6052,-2.6081,-2.6109,-2.6156,-2.6188,-2.622,-2.6253,-2.631,-2.6339,-2.6393,-2.6438,-2.6522,-2.6561,-2.6613,-2.6619,-2.6645,-2.6627,-2.6618,-2.662,-2.6617,-2.6621,-2.6648,-2.6648,-2.6649,-2.6649,0,-2.6009,-2.6024,-2.6069,-2.612,-2.6157,-2.6199,-2.6241,-2.6264,-2.6304,-2.634,-2.6394,-2.6429,-2.6498,-2.6552,-2.6608,-2.6638,-2.665,-2.6654,-2.6663,-2.6656,-2.6641,-2.6649,-2.6578,-2.6652,-2.6652,-2.6651,-2.6651,-2.6651,-2.6042,-2.6075,-2.6121,-2.6171,-2.6206,-2.6245,-2.6281,-2.6313,-2.6358,-2.6417,-2.6433,-2.649,-2.6538,-2.6614,-2.6645,-2.669,-2.6687,-2.6701,-2.6704,-2.6707,-2.6707,-2.6634,-2.67,-2.67,-2.67,-2.67,-2.67,0,-2.6095,-2.6126,-2.6171,-2.6229,-2.6268,-2.6276,-2.6323,-2.6356,-2.6405,-2.6448,-2.6491,-2.6554,-2.6606,-2.6649,-2.6703,-2.6731,-2.6738,-2.6744,-2.6742,-2.6749,-2.6706,-2.6693,-2.6737,-2.6737,-2.6737,-2.6737,-2.6737,-2.6737,-2.6127,-2.6184,-2.6204,-2.6278,-2.6309,-2.6364,-2.639,-2.6427,-2.6461,-2.6529,-2.6573,-2.66,-2.6644,-2.6701,-2.675,-2.6761,-2.678,-2.6785,-2.6797,-2.6756,-2.6752,-2.6748,-2.6735,-2.6789,-2.6789,-2.6837,-2.6837,-2.6837]},{"header":{"parameterUnit":"m.s-1","parameterCategory":1,"la1":30.2991,"la2":30.254,"lo1":-89.0895,"lo2":-89.0444,"dy":0.0017,"dx":0.0017,"nx":28,"ny":28,"refTime":"2025-05-20T03:00:00:Z","depth":0,"parameterNumber":3,"parameterNumberName":"V-component_of_WINDS"},"data":[0,0,0,0,0,0,0,0,0,0,0,0,0,0,0,0,0,0,0,0,0,0,0,0,0,0,0,0,0,0,0,0,0,0,0,0,0,0,0,0,0,0,0,0,0,0,0,0,0,0,0,0,0,0,0,0,0,0,6.3197,6.3197,0,6.3252,6.3253,6.3254,6.3189,6.3187,6.3185,6.3182,6.3235,6.3239,6.3243,0,0,0,0,0,0,0,0,0,0,0,0,0,6.3031,6.3035,6.3197,6.3197,6.3198,6.3252,6.3253,6.3254,6.319,6.3187,6.3184,6.3181,6.3234,6.3239,6.3243,0,0,0,0,0,0,0,0,0,0,0,0,0,6.3096,6.3036,6.3196,6.3173,6.3171,6.3252,6.3253,6.3254,6.319,6.3187,6.3183,6.318,6.3233,6.3238,6.3244,6.3349,0,0,6.326,6.3263,0,0,0,0,0,0,0,0,6.3093,6.3103,6.3176,6.3175,6.3173,6.321,6.3214,6.3286,6.3191,6.3183,6.3182,6.3178,6.323,6.3235,6.3253,6.3352,6.3354,6.3261,6.3264,6.3266,6.3268,0,0,0,0,0,0,0,6.3088,6.31,6.3218,6.3177,6.3175,6.3158,6.3163,6.3227,6.3226,6.3183,6.3179,6.3187,6.3228,6.3248,6.3254,6.3355,6.3261,6.3265,6.3269,6.3271,6.3542,6.3545,0,0,0,0,0,0,6.3087,6.3096,6.3217,6.322,6.3123,6.3164,6.317,6.3202,6.3225,6.3225,6.319,6.3184,6.3241,6.3248,6.3256,6.338,6.3266,6.3271,6.3275,6.3538,6.3542,6.3547,0,0,0,0,0,0,6.3084,6.3099,6.3214,6.3157,6.3171,6.3171,6.3207,6.3205,6.3225,6.323,6.3229,6.3211,6.3238,6.3248,6.3327,6.3381,6.3274,6.3279,6.3533,6.3539,6.3545,6.363,0,0,0,0,0,0,6.3079,6.3098,6.3139,6.3159,6.3174,6.3286,6.3211,6.3209,6.3235,6.3227,6.3249,6.3249,6.3236,6.3319,6.3332,6.3387,6.3283,6.3528,6.3536,6.3543,6.3623,6.3638,6.3652,0,0,0,0,0,6.3074,6.316,6.3141,6.3156,6.3225,6.3289,6.3297,6.3282,6.324,6.328,6.3283,6.3248,6.3374,6.3327,6.3342,6.3399,6.3525,6.3534,6.3542,6.3616,6.3635,6.3652,0,0,0,0,0,0,6.3144,6.3162,6.3141,6.3237,6.3262,6.3278,6.3328,6.3303,6.334,6.3331,6.3309,6.3314,6.3398,6.3406,6.3354,6.3502,6.3442,6.3454,6.3493,6.3511,6.3526,6.3521,6.3288,0,0,0,0,0,6.3172,6.3223,6.3235,6.3318,6.3332,6.3329,6.3355,6.3342,6.3366,6.3376,6.3385,6.3409,6.3453,6.3483,6.3524,6.3624,6.3627,6.3671,6.3685,6.3697,6.3707,6.376,6.3779,6.3576,6.3575,6.3575,0,0,6.3227,6.3243,6.3277,6.3333,6.335,6.3403,6.3338,6.3396,6.3434,6.3384,6.3459,6.3467,6.3492,6.3581,6.3621,6.3591,6.3765,6.3708,6.3718,6.3722,6.3771,6.379,6.3807,6.3581,6.358,6.3579,0,0,6.3355,6.3373,6.3444,6.3464,6.3492,6.349,6.3507,6.3527,6.3531,6.3606,6.3569,6.3614,6.3692,6.3711,6.3731,6.3868,6.3837,6.3882,6.3958,6.4009,6.4025,6.4039,6.4087,6.4104,6.3892,6.3893,6.3893,0,6.342,6.3499,6.3483,6.3544,6.3569,6.3529,6.36,6.3619,6.3659,6.3677,6.3643,6.374,6.3754,6.3847,6.3881,6.3899,6.3917,6.3878,6.4025,6.4038,6.4051,6.4096,6.4114,6.3898,6.3897,6.3897,6.3896,0,6.3577,6.3632,6.3686,6.3727,6.3759,6.3824,6.3817,6.3851,6.3835,6.3835,6.3912,6.3928,6.3971,6.3993,6.3977,6.4084,6.4064,6.4028,6.3967,6.4076,6.4118,6.4135,6.3905,6.3903,6.3902,6.3901,0,0,6.3749,6.3782,6.3802,6.382,6.3849,6.3891,6.3955,6.3999,6.4027,6.4057,6.4108,6.4176,6.4143,6.4166,6.4152,6.4197,6.4303,6.4155,6.4156,6.4181,6.442,6.4446,6.4466,6.4284,6.4287,6.429,6.4418,0,6.3877,6.3988,6.3976,6.4082,6.4132,6.4095,6.415,6.4173,6.4176,6.4218,6.422,6.4267,6.4221,6.4235,6.4278,6.4281,6.4351,6.4272,6.433,6.4332,6.4323,6.4488,6.4516,6.4636,6.4434,6.4437,6.4439,0,6.404,6.4077,6.4188,6.4209,6.423,6.428,6.4319,6.4361,6.4386,6.4384,6.4411,6.4389,6.4452,6.4391,6.4476,6.4423,6.4446,6.4451,6.4456,6.4459,6.4391,6.4494,6.4674,6.4691,6.4465,6.4463,6.4461,0,6.4153,6.423,6.4306,6.4323,6.4351,6.4386,6.4399,6.4421,6.4449,6.4483,6.45,6.4541,6.4563,6.4595,6.4584,6.4541,6.4671,6.461,6.467,6.4671,6.4697,6.4696,6.4881,6.4716,6.4715,6.4715,6.4715,0,6.4295,6.4364,6.4357,6.4404,6.448,6.4466,6.4541,6.4549,6.4569,6.4615,6.4586,6.463,6.4614,6.4657,6.465,6.4721,6.4731,6.4731,6.4727,6.4732,6.4732,6.4746,6.4736,6.472,6.4719,6.4718,6.4717,0,6.4433,6.4432,6.4512,6.4532,6.4539,6.4594,6.461,6.4654,6.4655,6.4714,6.4727,6.4728,6.4777,6.477,6.4825,6.4819,6.4907,6.4895,6.4899,6.4896,6.4956,6.495,6.5155,6.5181,6.5,6.5002,6.5004,0,6.4524,6.4576,6.4602,6.4632,6.4648,6.4696,6.4724,6.4712,6.4743,6.4776,6.4815,6.4862,6.4898,6.4979,6.4983,6.5024,6.5011,6.5081,6.5017,6.5021,6.5011,6.5007,6.5012,6.5093,6.5095,6.5096,6.5098,0,6.4683,6.468,6.4723,6.4766,6.4801,6.4833,6.4862,6.4888,6.4879,6.4914,6.4965,6.4993,6.505,6.5096,6.5135,6.5147,6.512,6.5118,6.5134,6.5139,6.5138,6.5138,6.4932,6.5113,6.5111,6.511,6.5109,6.5109,6.4799,6.4844,6.487,6.4918,6.4939,6.4967,6.5009,6.5016,6.5058,6.5104,6.5094,6.5151,6.5175,6.5225,6.5241,6.5284,6.5259,6.5282,6.5287,6.5293,6.53,6.5133,6.5291,6.5291,6.5291,6.529,6.529,0,6.4956,6.4971,6.5016,6.5059,6.5097,6.5071,6.5102,6.5135,6.5186,6.5211,6.5248,6.5306,6.5351,6.536,6.5403,6.5436,6.5425,6.5447,6.5444,6.5446,6.5321,6.5302,6.5455,6.5455,6.5455,6.5455,6.5455,6.5455,6.5042,6.5116,6.5117,6.5201,6.5214,6.5271,6.5291,6.5317,6.5337,6.5403,6.5441,6.5447,6.5465,6.5509,6.5549,6.555,6.5567,6.5594,6.559,6.5472,6.5455,6.544,6.5422,6.5598,6.5598,6.5712,6.5713,6.5714]}]]